Previsão horária em Abqaiq

Hoje, 9 Maio, Domingo

Tempo Temperatura Precipitação Vento Pressão Humidade
00:00 +28°C° 0 mm 2 m/s 750 mmHg 43%
01:00 +28°C° 0 mm 2 m/s 750 mmHg 42%
02:00 +28°C° 0 mm 2 m/s 750 mmHg 40%
03:00 +28°C° 0 mm 2 m/s 749 mmHg 38%
04:00 +28°C° 0 mm 1 m/s 750 mmHg 36%
05:00 +28°C° 0 mm 1 m/s 750 mmHg 34%
06:00 +29°C° 0 mm 1 m/s 751 mmHg 32%
07:00 +31°C° 0 mm 1 m/s 751 mmHg 27%
08:00 +33°C° 0 mm 1 m/s 751 mmHg 21%
09:00 +36°C° 0 mm 1 m/s 751 mmHg 16%
10:00 +38°C° 0 mm 2 m/s 751 mmHg 14%
11:00 +39°C° 0 mm 3 m/s 750 mmHg 13%
12:00 +42°C° 0 mm 3 m/s 750 mmHg 11%
13:00 +42°C° 0 mm 4 m/s 749 mmHg 11%
14:00 +42°C° 0 mm 4 m/s 749 mmHg 11%
15:00 +43°C° 0 mm 5 m/s 748 mmHg 11%
16:00 +41°C° 0 mm 5 m/s 748 mmHg 13%
17:00 +38°C° 0 mm 4 m/s 748 mmHg 15%
18:00 +37°C° 0 mm 4 m/s 748 mmHg 17%
19:00 +35°C° 0 mm 4 m/s 749 mmHg 22%
20:00 +33°C° 0 mm 3 m/s 749 mmHg 26%
21:00 +30°C° 0 mm 2 m/s 750 mmHg 31%
22:00 +30°C° 0 mm 2 m/s 749 mmHg 31%
23:00 +29°C° 0 mm 2 m/s 749 mmHg 31%

Amanhã, 10 Maio, Segunda-feira

Tempo Temperatura Precipitação Vento Pressão Humidade
00:00 +29°C° 0 mm 2 m/s 749 mmHg 31%
01:00 +29°C° 0 mm 2 m/s 749 mmHg 30%
02:00 +29°C° 0 mm 2 m/s 749 mmHg 29%
03:00 +28°C° 0 mm 2 m/s 749 mmHg 29%
04:00 +29°C° 0 mm 3 m/s 749 mmHg 28%
05:00 +29°C° 0 mm 3 m/s 750 mmHg 26%
06:00 +29°C° 0 mm 4 m/s 750 mmHg 25%
07:00 +34°C° 0 mm 4 m/s 750 mmHg 21%
08:00 +37°C° 0 mm 4 m/s 750 mmHg 16%
09:00 +41°C° 0 mm 4 m/s 750 mmHg 11%
10:00 +42°C° 0 mm 4 m/s 750 mmHg 10%
11:00 +43°C° 0 mm 4 m/s 749 mmHg 8%
12:00 +44°C° 0 mm 4 m/s 749 mmHg 7%
13:00 +44°C° 0 mm 4 m/s 749 mmHg 7%
14:00 +44°C° 0 mm 4 m/s 748 mmHg 7%
15:00 +45°C° 0 mm 4 m/s 748 mmHg 7%
16:00 +42°C° 0 mm 4 m/s 748 mmHg 9%
17:00 +40°C° 0 mm 4 m/s 747 mmHg 12%
18:00 +37°C° 0 mm 4 m/s 747 mmHg 15%
19:00 +35°C° 0 mm 3 m/s 748 mmHg 17%
20:00 +32°C° 0 mm 2 m/s 748 mmHg 20%
21:00 +31°C° 0 mm 2 m/s 749 mmHg 22%
22:00 +30°C° 0 mm 2 m/s 748 mmHg 22%
23:00 +30°C° 0 mm 1 m/s 748 mmHg 22%

Depois de amanhã, 11 Maio, Terça-feira

Tempo Temperatura Precipitação Vento Pressão Humidade
00:00 +29°C° 0 mm 1 m/s 748 mmHg 22%
01:00 +29°C° 0 mm 2 m/s 748 mmHg 21%
02:00 +30°C° 0 mm 2 m/s 748 mmHg 20%
03:00 +30°C° 0 mm 3 m/s 748 mmHg 19%
04:00 +30°C° 0 mm 3 m/s 748 mmHg 19%
05:00 +30°C° 0 mm 3 m/s 749 mmHg 18%
06:00 +31°C° 0 mm 3 m/s 749 mmHg 17%
07:00 +35°C° 0 mm 3 m/s 749 mmHg 15%
08:00 +38°C° 0 mm 3 m/s 749 mmHg 12%
09:00 +40°C° 0 mm 3 m/s 750 mmHg 10%
10:00 +42°C° 0 mm 2 m/s 749 mmHg 9%
11:00 +43°C° 0 mm 2 m/s 749 mmHg 8%
12:00 +44°C° 0 mm 1 m/s 749 mmHg 7%
13:00 +45°C° 0 mm 2 m/s 748 mmHg 7%
14:00 +45°C° 0 mm 3 m/s 748 mmHg 7%
15:00 +45°C° 0 mm 4 m/s 747 mmHg 7%
16:00 +43°C° 0 mm 4 m/s 747 mmHg 11%
17:00 +40°C° 0 mm 4 m/s 748 mmHg 14%
18:00 +37°C° 0 mm 5 m/s 748 mmHg 17%
19:00 +35°C° 0 mm 4 m/s 748 mmHg 20%
20:00 +34°C° 0 mm 3 m/s 748 mmHg 22%
21:00 +33°C° 0 mm 3 m/s 749 mmHg 25%
22:00 +33°C° 0 mm 3 m/s 748 mmHg 24%
23:00 +31°C° 0 mm 3 m/s 748 mmHg 22%

12 Maio, Quarta-feira

Tempo Temperatura Precipitação Vento Pressão Humidade
00:00 +31°C° 0 mm 3 m/s 748 mmHg 21%
01:00 +31°C° 0 mm 2 m/s 748 mmHg 20%
02:00 +30°C° 0 mm 2 m/s 748 mmHg 19%
03:00 +30°C° 0 mm 2 m/s 748 mmHg 19%
04:00 +30°C° 0 mm 2 m/s 748 mmHg 18%
05:00 +31°C° 0 mm 2 m/s 748 mmHg 17%
06:00 +31°C° 0 mm 1 m/s 749 mmHg 16%
07:00 +34°C° 0 mm 1 m/s 749 mmHg 14%
08:00 +36°C° 0 mm 1 m/s 749 mmHg 12%
09:00 +40°C° 0 mm 1 m/s 749 mmHg 9%
10:00 +41°C° 0 mm 1 m/s 749 mmHg 8%
11:00 +43°C° 0 mm 1 m/s 749 mmHg 8%
12:00 +45°C° 0 mm 2 m/s 748 mmHg 7%
13:00 +45°C° 0 mm 3 m/s 748 mmHg 7%
14:00 +45°C° 0 mm 4 m/s 747 mmHg 8%
15:00 +46°C° 0 mm 5 m/s 747 mmHg 8%
16:00 +43°C° 0 mm 4 m/s 747 mmHg 11%
17:00 +41°C° 0 mm 4 m/s 747 mmHg 13%
18:00 +37°C° 0 mm 4 m/s 747 mmHg 16%
19:00 +36°C° 0 mm 3 m/s 747 mmHg 18%
20:00 +35°C° 0 mm 3 m/s 747 mmHg 20%
21:00 +32°C° 0 mm 2 m/s 748 mmHg 21%
22:00 +32°C° 0 mm 2 m/s 747 mmHg 22%
23:00 +32°C° 0 mm 2 m/s 747 mmHg 23%

13 Maio, Quinta-feira

Tempo Temperatura Precipitação Vento Pressão Humidade
00:00 +31°C° 0 mm 2 m/s 747 mmHg 24%
01:00 +31°C° 0 mm 2 m/s 747 mmHg 23%
02:00 +31°C° 0 mm 2 m/s 747 mmHg 22%
03:00 +31°C° 0 mm 2 m/s 747 mmHg 21%
04:00 +31°C° 0 mm 2 m/s 747 mmHg 19%
05:00 +32°C° 0 mm 2 m/s 747 mmHg 18%
06:00 +34°C° 0 mm 2 m/s 747 mmHg 16%
07:00 +36°C° 0 mm 2 m/s 748 mmHg 14%
08:00 +39°C° 0 mm 2 m/s 748 mmHg 12%
09:00 +41°C° 0 mm 1 m/s 748 mmHg 10%
10:00 +42°C° 0 mm 2 m/s 748 mmHg 9%
11:00 +45°C° 0 mm 2 m/s 748 mmHg 8%
12:00 +46°C° 0 mm 3 m/s 747 mmHg 7%
13:00 +46°C° 0 mm 3 m/s 747 mmHg 7%
14:00 +48°C° 0 mm 4 m/s 746 mmHg 7%
15:00 +48°C° 0 mm 5 m/s 746 mmHg 7%
16:00 +45°C° 0 mm 5 m/s 746 mmHg 9%
17:00 +42°C° 0 mm 5 m/s 746 mmHg 12%
18:00 +40°C° 0 mm 5 m/s 746 mmHg 14%
19:00 +37°C° 0 mm 4 m/s 746 mmHg 15%
20:00 +36°C° 0 mm 3 m/s 747 mmHg 17%
21:00 +34°C° 0 mm 2 m/s 747 mmHg 19%
22:00 +34°C° 0 mm 2 m/s 747 mmHg 19%
23:00 +32°C° 0 mm 1 m/s 747 mmHg 19%

14 Maio, Sexta-feira

Tempo Temperatura Precipitação Vento Pressão Humidade
00:00 +32°C° 0 mm 1 m/s 747 mmHg 20%
01:00 +32°C° 0 mm 2 m/s 747 mmHg 18%
02:00 +32°C° 0 mm 2 m/s 747 mmHg 17%
03:00 +34°C° 0 mm 3 m/s 746 mmHg 16%
04:00 +34°C° 0 mm 3 m/s 747 mmHg 15%
05:00 +34°C° 0 mm 3 m/s 747 mmHg 14%
06:00 +35°C° 0 mm 4 m/s 748 mmHg 14%
07:00 +37°C° 0 mm 4 m/s 748 mmHg 12%
08:00 +40°C° 0 mm 3 m/s 748 mmHg 10%
09:00 +43°C° 0 mm 3 m/s 748 mmHg 9%
10:00 +45°C° 0 mm 3 m/s 748 mmHg 8%
11:00 +46°C° 0 mm 3 m/s 747 mmHg 7%
12:00 +47°C° 0 mm 3 m/s 747 mmHg 6%
13:00 +48°C° 0 mm 4 m/s 746 mmHg 7%
14:00 +49°C° 0 mm 4 m/s 746 mmHg 7%
15:00 +49°C° 0 mm 5 m/s 745 mmHg 7%
16:00 +46°C° 0 mm 5 m/s 745 mmHg 9%
17:00 +43°C° 0 mm 5 m/s 745 mmHg 11%
18:00 +41°C° 0 mm 5 m/s 745 mmHg 13%
19:00 +38°C° 0 mm 4 m/s 745 mmHg 17%
20:00 +36°C° 0 mm 3 m/s 746 mmHg 21%
21:00 +34°C° 0 mm 2 m/s 746 mmHg 25%
22:00 +34°C° 0 mm 2 m/s 746 mmHg 25%
23:00 +32°C° 0 mm 2 m/s 746 mmHg 25%
Mostrar mais

Necessitamos do seu Consentimento

A Meteoprog e os seus Fornecedores de Serviços podem armazenar e aceder a dados pessoais como cookies, identificadores do dispositivo ou outras tecnologias semelhantes existentes no seu dispositivo e processar estes dados para personalizar conteúdos e anúncios, assim como funcionalidades nas redes sociais e análise de tráfego.

  • Armazenar e/ou aceder a informações no seu dispositivo

    Os cookies, identificadores do dispositivo ou outras informações podem ser armazenados ou acedidos no seu dispositivo, para os fins acima indicados.

  • Anúncios e conteúdos personalizados, medição de anúncios e conteúdos, dados sobre o público-alvo e desenvolvimento de produtos

    Os anúncios e os conteúdos podem ser personalizados com base num perfil. Podem ser adicionados dados adicionais para uma maior personalização dos anúncios e dos conteúdos. A eficácia dos anúncios e dos conteúdos pode ser medida. Podem ser obtidas informações sobre o público que visualizou os anúncios e os conteúdos. Estes dados podem ser usados para desenvolver ou melhorar sistemas, softwares ou a experiência do utilizador.

Ao clicar em "Eu concordo”, permitirá o uso de cookies, identificadores do dispositivo e web beacons mencionados ou outras tecnologias semelhantes. As configurações do navegador do seu dispositivo podem ser alteradas.

Para certos fins, podem ser invocados interesses legítimos ao invés de consentimento. Pode ler mais informação sobre este assunto na nossa Política de Privacidade e Cookies.